IRIDIUM 110

Last updated on Fri Sep 11 2026 00:03:06 GMT+0000 (Coordinated Universal Time)

1 43481U 18047F 26253.51118476 .00000034 00000+0 48977-5 0 9997 2 43481 86.3933 52.7256 0002277 97.1084 263.0371 14.34217322434707
UTC large
Height (km)
Speed (km/s)
/
Latitude / Longitude
Inclination (degrees)
Orbital Period (minutes)
Azimuth
Elevation
Range (km)
Doppler Factor

Next 0 passes for location: London (51.5072 / 0.1276)

No passes found over London.
IRIDIUM 110